Olympia, Washington, United States (98501)
Lat: 47.04N, Lon: 122.9W
Wx Zone: WAZ504
Local Info
Past Weather Observations for Today

NOTE: This archive is for the closest National Weather Service station to Olympia. Information may differ from the station used for current weather conditions.

Click here for Long-term Archive

Time Weather Temperature Dewpoint Humidity Pressure Winds Precip Visibility
10:54
Partly Cloudy
72°F / 22°C 55°F / 13°C 57% 30.15 in
(1021 mb)
Calm - 10SM
09:54
Partly Cloudy
66°F / 19°C 55°F / 13°C 68% 30.15 in
(1021 mb)
S 3.5 mph
(S 6 kph)
- 10SM
09:01
Partly Cloudy
63°F / 17°C 55°F / 13°C 77% 30.15 in
(1021 mb)
Variable 3.5 mph
(Variable 6 kph)
- 10SM
08:54
Mostly Cloudy
63°F / 17°C 55°F / 13°C 77% 30.15 in
(1021 mb)
NE 4.6 mph
(NE 7 kph)
- 10SM
07:54
Overcast
Fog And Mist
57°F / 14°C 54°F / 12°C 88% 30.15 in
(1021 mb)
Calm - 3SM
06:54
Overcast
Fog And Mist
55°F / 13°C 54°F / 12°C 94% 30.15 in
(1021 mb)
Calm - 1SM
06:31
Overcast
Fog And Mist
55°F / 13°C 54°F / 12°C 94% 30.15 in
(1021 mb)
Calm - 2SM
06:22
Obscured
Fog And Mist
55°F / 13°C 54°F / 12°C 94% 30.15 in
(1021 mb)
Calm - 1SM
05:54
Obscured
Fog
54°F / 12°C 54°F / 12°C 100% 30.15 in
(1021 mb)
Calm - 1/4SM
05:46
Obscured
Fog
54°F / 12°C 54°F / 12°C 100% 30.15 in
(1021 mb)
Calm - 1/4SM
05:38
Overcast
Fog And Mist
54°F / 12°C 54°F / 12°C 100% 30.15 in
(1021 mb)
Calm - 1SM
05:29
Overcast
Fog And Mist
54°F / 12°C 54°F / 12°C 100% 30.15 in
(1021 mb)
Calm - 1 1/2SM
05:17
Overcast
Fog And Mist
54°F / 12°C 54°F / 12°C 100% 30.15 in
(1021 mb)
Calm - 3/4SM
05:13
Overcast
Fog And Mist
54°F / 12°C 54°F / 12°C 100% 30.15 in
(1021 mb)
SW 3.5 mph
(SW 6 kph)
- 1 3/4SM
05:11
Overcast
Fog And Mist
54°F / 12°C 54°F / 12°C 100% 30.15 in
(1021 mb)
SW 3.5 mph
(SW 6 kph)
- 3SM
05:03
Overcast
Fog And Mist
54°F / 12°C 52°F / 11°C 94% 30.15 in
(1021 mb)
Calm - 2 1/2SM
04:54
Overcast
Fog And Mist
54°F / 12°C 52°F / 11°C 94% 30.15 in
(1021 mb)
Calm - 5SM
04:46
Overcast
Fog And Mist
54°F / 12°C 52°F / 11°C 94% 30.15 in
(1021 mb)
Calm - 2 1/2SM
04:43
Obscured
Fog And Mist
54°F / 12°C 52°F / 11°C 94% 30.15 in
(1021 mb)
Calm - 1SM
04:14
Obscured
Fog
54°F / 12°C 52°F / 11°C 94% 30.15 in
(1021 mb)
Calm - 1/4SM
04:06
Obscured
Fog
54°F / 12°C 52°F / 11°C 94% 30.12 in
(1020 mb)
Calm - 1/2SM
03:58
Overcast
Fog And Mist
54°F / 12°C 52°F / 11°C 94% 30.12 in
(1020 mb)
Calm - 1 1/4SM
03:54
Mostly Cloudy
Fog And Mist
54°F / 12°C 52°F / 11°C 94% 30.12 in
(1020 mb)
Calm - 2 1/2SM
03:42
Mostly Cloudy
52°F / 11°C 52°F / 11°C 100% 30.12 in
(1020 mb)
Calm - 7SM
03:24
Partly Cloudy
52°F / 11°C 50°F / 10°C 94% 30.12 in
(1020 mb)
SE 4.6 mph
(SE 7 kph)
- 9SM
02:54
Clear
54°F / 12°C 50°F / 10°C 88% 30.12 in
(1020 mb)
Calm - 10SM
01:54
Clear
54°F / 12°C 52°F / 11°C 94% 30.12 in
(1020 mb)
S 3.5 mph
(S 6 kph)
- 10SM
00:54
Clear
55°F / 13°C 54°F / 12°C 94% 30.12 in
(1020 mb)
Calm - 10SM
Time Weather Temperature Dewpoint Humidity Pressure Winds Precip Visibility


Weather for websites

WeatherForYou.com, LLC is not responsible for any damages or problems caused by this service. Current weather conditions are obtained from the closest station including government and personal stations which may have varying degrees of accuracy. Weather forecasts are derived from the NOAA NDFD. Like all things, this site belongs to Jesus Christ... He just trusts us to maintain it. If you have any questions or comments email webmaster@weatherforyou.com

Copyright © 2016, WeatherForYou.com LLC. All rights reserved.